Погода в Верхнем Потаме

Россия / Свердловская область     56°55′03″N   58°00′03″E
темп.,
°C
ветер,
м/с
пор.,
м/с
влажн.,
%
обл.,
%
осадки,
мм/ч
давл.,
гПа
погр.,
м
16 мая, вс
вс1623:00+16юв3582100 0.0 101992
02:00+17ююз227351 0.0 101930
05:00+16юз2107586 0.0 1020194
08:00+21зюз3105445 0.0 1019342
11:00+27зюз473596 0.0 1019858
14:00+30зюз58248 0.0 10193139
17:00+29зюз58285 0.0 10183116
20:00+24юз39450 0.0 1017253
17 мая, пн
пн1723:00+19юз312555 0.0 1017239
02:00+17ююз295994 0.0 1017163
05:00+15ююз22756 0.2 101721
08:00+20зюз310565 0.0 1018555
11:00+25зюз6104217 0.0 10171182
14:00+27з713365 0.0 10172623
17:00+28з6123843 0.0 10163035
20:00+24зюз41051100 0.0 1015566
18 мая, вт
вт1823:00+19зсз277143 0.0 1016185
02:00+16зсз287399 0.0 1016175
05:00+13зсз238241 0.0 101760
08:00+17сз35670 0.0 1017482
11:00+20сз57512 0.0 10181583
14:00+23ссз574020 0.0 10182210
17:00+19св67560 0.0 10201010
20:00+16св46610 0.0 1022865
19 мая, ср
ср1923:00+11всв29761 0.0 1024208
02:00+9в2482100 0.0 102574
05:00+8в289051 0.0 1026204
08:00+13вюв36639 0.0 1026547
11:00+18вюв34406 0.0 10251014
14:00+22вюв2331100 0.0 10241455
17:00+23вюв1229100 0.0 10231690
20:00+19вюв1148100 0.0 102311
20 мая, чт
чт2023:00+14ююв11609 0.0 102311
02:00+12юв11655 0.0 102310
05:00+10юв226838 0.0 102411
08:00+15юз3657100 0.0 1023319
11:00+20зюз344498 0.0 1023785
14:00+24з333495 0.0 10211408
17:00+24з3436100 0.0 10201580
20:00+19зсз2458100 0.0 102080